Time,TemperatureF,DewpointF,PressureIn,WindDirection,WindDirectionDegrees,WindSpeedMPH,WindSpeedGustMPH,Humidity,HourlyPrecipIn,Conditions,Clouds,dailyrainin,SoftwareType,DateUTC
2013-01-04 00:00:00,18.5,15.3,30.39,SW,217,2.0,5.0,87,0.00,CLR,SKC,0.00,WeatherDisplay:10.37,2013-01-04 06:00:00,
2013-01-04 00:15:00,18.3,15.1,30.39,SSW,205,2.0,4.0,87,0.00,CLR,SKC,0.00,WeatherDisplay:10.37,2013-01-04 06:15:00,
2013-01-04 00:30:00,18.0,15.0,30.37,SSW,197,1.0,3.0,88,0.00,CLR,SKC,0.00,WeatherDisplay:10.37,2013-01-04 06:30:00,
2013-01-04 00:45:00,18.1,15.4,30.37,South,186,2.0,4.0,89,0.00,CLR,SKC,0.00,WeatherDisplay:10.37,2013-01-04 06:45:00,
2013-01-04 01:00:00,18.1,15.4,30.36,SSW,199,1.0,6.0,89,0.00,CLR,SKC,0.00,WeatherDisplay:10.37,2013-01-04 07:00:00,
2013-01-04 01:15:00,18.2,15.5,30.35,SSW,211,1.0,4.0,89,0.00,CLR,SKC,0.00,WeatherDisplay:10.37,2013-01-04 07:15:00,
2013-01-04 01:30:00,18.4,16.0,30.35,SW,214,2.0,5.0,90,0.00,CLR,SKC,0.00,WeatherDisplay:10.37,2013-01-04 07:30:00,
2013-01-04 01:45:00,19.0,16.3,30.35,SW,225,3.0,7.0,89,0.00,CLR,SKC,0.00,WeatherDisplay:10.37,2013-01-04 07:45:00,
2013-01-04 02:00:00,19.2,16.5,30.35,SW,225,2.0,7.0,89,0.00,CLR,SKC,0.00,WeatherDisplay:10.37,2013-01-04 08:00:00,
2013-01-04 02:15:00,19.3,16.6,30.34,SW,222,2.0,7.0,89,0.00,CLR,SKC,0.00,WeatherDisplay:10.37,2013-01-04 08:15:00,
2013-01-04 02:30:00,19.3,16.6,30.34,SSW,211,3.0,8.0,89,0.00,CLR,SKC,0.00,WeatherDisplay:10.37,2013-01-04 08:30:00,
2013-01-04 02:45:00,19.3,16.6,30.34,SSW,209,3.0,7.0,89,0.00,CLR,SKC,0.00,WeatherDisplay:10.37,2013-01-04 08:45:00,
2013-01-04 03:00:00,19.2,16.5,30.35,SW,218,3.0,8.0,89,0.00,CLR,SKC,0.00,WeatherDisplay:10.37,2013-01-04 09:00:00,
2013-01-04 03:15:00,19.1,16.4,30.35,SW,217,3.0,9.0,89,0.00,CLR,SKC,0.00,WeatherDisplay:10.37,2013-01-04 09:15:00,
2013-01-04 03:30:00,18.9,16.2,30.34,SW,214,5.0,9.0,89,0.00,CLR,SKC,0.00,WeatherDisplay:10.37,2013-01-04 09:30:00,
2013-01-04 03:45:00,18.8,16.4,30.34,SSW,212,3.0,10.0,90,0.00,CLR,SKC,0.00,WeatherDisplay:10.37,2013-01-04 09:45:00,
2013-01-04 04:00:00,19.1,16.4,30.33,SSW,200,3.0,8.0,89,0.00,CLR,SKC,0.00,WeatherDisplay:10.37,2013-01-04 10:00:00,
2013-01-04 04:15:00,19.3,16.3,30.33,SSW,208,3.0,8.0,88,0.00,CLR,SKC,0.00,WeatherDisplay:10.37,2013-01-04 10:15:00,
2013-01-04 04:30:00,19.1,16.1,30.33,SSW,213,2.0,6.0,88,0.00,CLR,SKC,0.00,WeatherDisplay:10.37,2013-01-04 10:30:00,
2013-01-04 04:45:00,19.1,16.1,30.33,SW,218,2.0,7.0,88,0.00,CLR,SKC,0.00,WeatherDisplay:10.37,2013-01-04 10:45:00,
2013-01-04 05:00:00,19.0,16.0,30.32,SSW,210,2.0,7.0,88,0.00,CLR,SKC,0.00,WeatherDisplay:10.37,2013-01-04 11:00:00,
2013-01-04 05:15:00,19.1,16.1,30.32,SW,217,2.0,6.0,88,0.00,CLR,SKC,0.00,WeatherDisplay:10.37,2013-01-04 11:15:00,
2013-01-04 05:30:00,19.3,16.1,30.31,SSW,205,2.0,7.0,87,0.00,CLR,SKC,0.00,WeatherDisplay:10.37,2013-01-04 11:30:00,
2013-01-04 05:45:00,19.3,16.1,30.31,SSW,209,3.0,6.0,87,0.00,CLR,SKC,0.00,WeatherDisplay:10.37,2013-01-04 11:45:00,
2013-01-04 06:00:00,19.2,16.0,30.30,SSW,200,2.0,6.0,87,0.00,CLR,SKC,0.00,WeatherDisplay:10.37,2013-01-04 12:00:00,
2013-01-04 06:15:00,19.0,15.8,30.31,SSW,198,2.0,5.0,87,0.00,CLR,SKC,0.00,WeatherDisplay:10.37,2013-01-04 12:15:00,
2013-01-04 06:30:00,18.7,15.5,30.30,SSW,192,3.0,5.0,87,0.00,CLR,SKC,0.00,WeatherDisplay:10.37,2013-01-04 12:30:00,
2013-01-04 06:45:00,18.6,15.6,30.31,South,191,0.0,6.0,88,0.00,CLR,SKC,0.00,WeatherDisplay:10.37,2013-01-04 12:45:00,
2013-01-04 07:00:00,18.5,15.3,30.31,SSW,208,0.0,9.0,87,0.00,CLR,SKC,0.00,WeatherDisplay:10.37,2013-01-04 13:00:00,
2013-01-04 07:15:00,18.5,15.3,30.31,SSW,199,3.0,6.0,87,0.00,CLR,SKC,0.00,WeatherDisplay:10.37,2013-01-04 13:15:00,
2013-01-04 07:30:00,18.4,15.2,30.31,SSW,202,2.0,8.0,87,0.00,CLR,SKC,0.00,WeatherDisplay:10.37,2013-01-04 13:30:00,
2013-01-04 07:45:00,18.4,15.2,30.31,SSW,202,3.0,6.0,87,0.00,CLR,SKC,0.00,WeatherDisplay:10.37,2013-01-04 13:45:00,
2013-01-04 08:00:00,18.5,15.0,30.30,SW,218,1.0,7.0,86,0.00,CLR,SKC,0.00,WeatherDisplay:10.37,2013-01-04 14:00:00,
2013-01-04 08:15:00,19.1,15.3,30.31,SSW,198,2.0,4.0,85,0.00,CLR,SKC,0.00,WeatherDisplay:10.37,2013-01-04 14:15:00,
2013-01-04 08:30:00,19.6,15.6,30.31,SSW,199,2.0,5.0,84,0.00,CLR,SKC,0.00,WeatherDisplay:10.37,2013-01-04 14:30:00,
2013-01-04 08:45:00,19.8,15.5,30.30,SW,217,2.0,6.0,83,0.00,CLR,SKC,0.00,WeatherDisplay:10.37,2013-01-04 14:45:00,
2013-01-04 09:00:00,20.5,15.6,30.30,SSW,204,1.0,7.0,81,0.00,CLR,SKC,0.00,WeatherDisplay:10.37,2013-01-04 15:00:00,
2013-01-04 09:15:00,20.9,15.7,30.31,SSW,203,1.0,8.0,80,0.00,CLR,SKC,0.00,WeatherDisplay:10.37,2013-01-04 15:15:00,
2013-01-04 09:30:00,21.6,16.1,30.31,SSW,202,2.0,6.0,79,0.00,CLR,SKC,0.00,WeatherDisplay:10.37,2013-01-04 15:30:00,
2013-01-04 09:45:00,21.8,15.7,30.32,SSW,207,2.0,9.0,77,0.00,CLR,SKC,0.00,WeatherDisplay:10.37,2013-01-04 15:45:00,
2013-01-04 10:00:00,22.7,16.6,30.33,SW,214,2.0,5.0,77,0.00,CLR,SKC,0.00,WeatherDisplay:10.37,2013-01-04 16:00:00,
2013-01-04 10:15:00,23.2,16.4,30.33,SW,230,3.0,6.0,75,0.00,CLR,SKC,0.00,WeatherDisplay:10.37,2013-01-04 16:15:00,
2013-01-04 10:30:00,23.2,16.1,30.33,SW,229,3.0,7.0,74,0.00,CLR,SKC,0.00,WeatherDisplay:10.37,2013-01-04 16:30:00,
2013-01-04 10:45:00,24.0,16.9,30.33,SSW,204,3.0,8.0,74,0.00,CLR,SKC,0.00,WeatherDisplay:10.37,2013-01-04 16:45:00,
2013-01-04 11:00:00,24.7,17.0,30.33,SSW,202,3.0,8.0,72,0.00,CLR,SKC,0.00,WeatherDisplay:10.37,2013-01-04 17:00:00,
2013-01-04 11:15:00,25.2,16.8,30.32,South,188,3.0,9.0,70,0.00,CLR,SKC,0.00,WeatherDisplay:10.37,2013-01-04 17:15:00,
2013-01-04 11:30:00,25.4,16.6,30.32,SSW,204,3.0,9.0,69,0.00,CLR,SKC,0.00,WeatherDisplay:10.37,2013-01-04 17:30:00,
2013-01-04 11:45:00,26.3,17.2,30.31,SSW,202,3.0,10.0,68,0.00,CLR,SKC,0.00,WeatherDisplay:10.37,2013-01-04 17:45:00,
2013-01-04 12:00:00,27.0,17.8,30.31,South,190,5.0,9.0,68,0.00,CLR,SKC,0.00,WeatherDisplay:10.37,2013-01-04 18:00:00,
2013-01-04 12:15:00,27.3,17.8,30.30,SSW,206,5.0,10.0,67,0.00,CLR,SKC,0.00,WeatherDisplay:10.37,2013-01-04 18:15:00,
2013-01-04 12:30:00,28.4,18.1,30.29,SSW,198,3.0,7.0,65,0.00,CLR,SKC,0.00,WeatherDisplay:10.37,2013-01-04 18:30:00,
2013-01-04 12:45:00,29.3,18.6,30.28,SSW,193,6.0,8.0,64,0.00,CLR,SKC,0.00,WeatherDisplay:10.37,2013-01-04 18:45:00,
2013-01-04 13:00:00,30.1,18.6,30.27,SSW,210,3.0,8.0,62,0.00,CLR,SKC,0.00,WeatherDisplay:10.37,2013-01-04 19:00:00,
2013-01-04 13:15:00,31.3,19.4,30.27,SSW,210,3.0,8.0,61,0.00,CLR,SKC,0.00,WeatherDisplay:10.37,2013-01-04 19:15:00,
2013-01-04 13:30:00,32.3,20.0,30.26,South,190,3.0,7.0,60,0.00,CLR,SKC,0.00,WeatherDisplay:10.37,2013-01-04 19:30:00,
2013-01-04 13:45:00,32.2,19.9,30.25,SSW,195,6.0,9.0,60,0.00,CLR,SKC,0.00,WeatherDisplay:10.37,2013-01-04 19:45:00,
2013-01-04 14:00:00,32.7,19.9,30.25,SSW,200,5.0,9.0,59,0.00,CLR,SKC,0.00,WeatherDisplay:10.37,2013-01-04 20:00:00,
2013-01-04 14:15:00,33.2,20.0,30.25,SSW,203,3.0,8.0,58,0.00,CLR,SKC,0.00,WeatherDisplay:10.37,2013-01-04 20:15:00,
2013-01-04 14:30:00,34.1,20.4,30.25,South,188,1.0,6.0,57,0.00,CLR,SKC,0.00,WeatherDisplay:10.37,2013-01-04 20:30:00,
2013-01-04 14:45:00,35.2,21.5,30.25,SSW,207,1.0,6.0,57,0.00,CLR,SKC,0.00,WeatherDisplay:10.37,2013-01-04 20:45:00,
2013-01-04 15:00:00,35.4,20.8,30.24,SSW,206,2.0,7.0,55,0.00,CLR,SKC,0.00,WeatherDisplay:10.37,2013-01-04 21:00:00,
2013-01-04 15:15:00,35.6,19.7,30.24,SW,228,3.0,7.0,52,0.00,CLR,SKC,0.00,WeatherDisplay:10.37,2013-01-04 21:15:00,
2013-01-04 15:30:00,35.7,19.8,30.24,SSW,210,2.0,5.0,52,0.00,CLR,SKC,0.00,WeatherDisplay:10.37,2013-01-04 21:30:00,
2013-01-04 15:45:00,35.6,20.1,30.24,South,179,3.0,6.0,53,0.00,CLR,SKC,0.00,WeatherDisplay:10.37,2013-01-04 21:45:00,
2013-01-04 16:00:00,36.1,20.6,30.23,SSW,199,1.0,4.0,53,0.00,CLR,SKC,0.00,WeatherDisplay:10.37,2013-01-04 22:00:00,
2013-01-04 16:15:00,36.0,21.4,30.25,South,179,3.0,8.0,55,0.00,CLR,SKC,0.00,WeatherDisplay:10.37,2013-01-04 22:15:00,
2013-01-04 16:30:00,35.0,21.3,30.25,South,190,5.0,8.0,57,0.00,CLR,SKC,0.00,WeatherDisplay:10.37,2013-01-04 22:30:00,
2013-01-04 16:45:00,34.2,21.4,30.25,South,188,3.0,8.0,59,0.00,CLR,SKC,0.00,WeatherDisplay:10.37,2013-01-04 22:45:00,
2013-01-04 17:00:00,33.3,21.7,30.24,SSW,193,2.0,6.0,62,0.00,CLR,SKC,0.00,WeatherDisplay:10.37,2013-01-04 23:00:00,
2013-01-04 17:15:00,32.7,21.9,30.25,South,183,2.0,5.0,64,0.00,CLR,SKC,0.00,WeatherDisplay:10.37,2013-01-04 23:15:00,
2013-01-04 17:30:00,31.9,21.8,30.24,South,186,1.0,3.0,66,0.00,CLR,SKC,0.00,WeatherDisplay:10.37,2013-01-04 23:30:00,
2013-01-04 17:45:00,31.4,22.1,30.24,SSE,150,0.0,2.0,68,0.00,CLR,SKC,0.00,WeatherDisplay:10.37,2013-01-04 23:45:00,
2013-01-04 18:00:00,30.8,21.8,30.24,South,172,3.0,5.0,69,0.00,CLR,SKC,0.00,WeatherDisplay:10.37,2013-01-05 00:00:00,
2013-01-04 18:15:00,29.9,22.3,30.24,South,171,3.0,11.0,73,0.00,CLR,SKC,0.00,WeatherDisplay:10.37,2013-01-05 00:15:00,
2013-01-04 18:30:00,29.1,22.2,30.24,SSE,165,3.0,6.0,75,0.00,CLR,SKC,0.00,WeatherDisplay:10.37,2013-01-05 00:30:00,
2013-01-04 18:45:00,28.6,22.0,30.25,SSE,164,3.0,7.0,76,0.00,CLR,SKC,0.00,WeatherDisplay:10.37,2013-01-05 00:45:00,
2013-01-04 19:00:00,28.2,21.0,30.25,South,179,5.0,9.0,74,0.00,CLR,SKC,0.00,WeatherDisplay:10.37,2013-01-05 01:00:00,
2013-01-04 19:15:00,27.8,20.6,30.24,South,174,2.0,7.0,74,0.00,CLR,SKC,0.00,WeatherDisplay:10.37,2013-01-05 01:15:00,
2013-01-04 19:30:00,27.5,20.3,30.24,South,173,2.0,8.0,74,0.00,CLR,SKC,0.00,WeatherDisplay:10.37,2013-01-05 01:30:00,
2013-01-04 19:45:00,27.0,19.8,30.24,South,181,3.0,8.0,74,0.00,CLR,SKC,0.00,WeatherDisplay:10.37,2013-01-05 01:45:00,
2013-01-04 20:00:00,26.7,19.5,30.24,SSW,194,3.0,9.0,74,0.00,CLR,SKC,0.00,WeatherDisplay:10.37,2013-01-05 02:00:00,
2013-01-04 20:15:00,26.4,19.2,30.24,South,184,3.0,10.0,74,0.00,CLR,SKC,0.00,WeatherDisplay:10.37,2013-01-05 02:15:00,
2013-01-04 20:30:00,25.9,19.1,30.24,South,183,3.0,6.0,75,0.00,CLR,SKC,0.00,WeatherDisplay:10.37,2013-01-05 02:30:00,
2013-01-04 20:45:00,25.7,19.2,30.24,South,184,3.0,6.0,76,0.00,CLR,SKC,0.00,WeatherDisplay:10.37,2013-01-05 02:45:00,
2013-01-04 21:00:00,25.4,19.2,30.23,South,190,3.0,7.0,77,0.00,CLR,SKC,0.00,WeatherDisplay:10.37,2013-01-05 03:00:00,
2013-01-04 21:15:00,25.0,18.8,30.23,South,172,3.0,6.0,77,0.00,CLR,SKC,0.00,WeatherDisplay:10.37,2013-01-05 03:15:00,
2013-01-04 21:30:00,24.6,18.7,30.23,South,185,3.0,6.0,78,0.00,CLR,SKC,0.00,WeatherDisplay:10.37,2013-01-05 03:30:00,
2013-01-04 21:45:00,24.1,18.5,30.23,South,182,1.0,5.0,79,0.00,CLR,SKC,0.00,WeatherDisplay:10.37,2013-01-05 03:45:00,
2013-01-04 22:00:00,23.6,18.3,30.23,South,186,1.0,5.0,80,0.00,CLR,SKC,0.00,WeatherDisplay:10.37,2013-01-05 04:00:00,
2013-01-04 22:15:00,23.1,17.8,30.23,South,172,2.0,4.0,80,0.00,CLR,SKC,0.00,WeatherDisplay:10.37,2013-01-05 04:15:00,
2013-01-04 22:30:00,22.8,17.8,30.23,SSW,198,2.0,4.0,81,0.00,CLR,SKC,0.00,WeatherDisplay:10.37,2013-01-05 04:30:00,
2013-01-04 22:45:00,22.8,17.6,30.22,SSW,202,1.0,4.0,80,0.00,CLR,SKC,0.00,WeatherDisplay:10.37,2013-01-05 04:45:00,
2013-01-04 23:00:00,22.6,17.4,30.22,SSW,202,1.0,4.0,80,0.00,CLR,SKC,0.00,WeatherDisplay:10.37,2013-01-05 05:00:00,
2013-01-04 23:15:00,22.4,17.2,30.22,SSW,202,2.0,5.0,80,0.00,CLR,SKC,0.00,WeatherDisplay:10.37,2013-01-05 05:15:00,
2013-01-04 23:30:00,22.1,16.9,30.21,SSW,195,1.0,4.0,80,0.00,CLR,SKC,0.00,WeatherDisplay:10.37,2013-01-05 05:30:00,
2013-01-04 23:45:00,21.8,16.9,30.20,South,179,1.0,3.0,81,0.00,CLR,SKC,0.00,WeatherDisplay:10.37,2013-01-05 05:45:00,